TimePST,TemperatureF,Dew PointF,Humidity,Sea Level PressureIn,VisibilityMPH,Wind Direction,Wind SpeedMPH,Gust SpeedMPH,PrecipitationIn,Events,Conditions,WindDirDegrees,DateUTC
12:56 AM,42.1,17.1,37,30.21,10.0,Calm,Calm,-,N/A,,Clear,0,2012-11-24 08:56:00
1:56 AM,39.0,16.0,39,30.21,10.0,South,3.5,-,N/A,,Clear,190,2012-11-24 09:56:00
2:56 AM,39.0,16.0,39,30.20,10.0,Calm,Calm,-,N/A,,Clear,0,2012-11-24 10:56:00
3:56 AM,39.0,16.0,39,30.20,10.0,Calm,Calm,-,N/A,,Clear,0,2012-11-24 11:56:00
4:56 AM,35.1,15.1,44,30.21,10.0,Calm,Calm,-,N/A,,Clear,0,2012-11-24 12:56:00
5:56 AM,34.0,14.0,44,30.22,10.0,Calm,Calm,-,N/A,,Clear,0,2012-11-24 13:56:00
6:56 AM,32.0,12.0,44,30.25,10.0,Calm,Calm,-,N/A,,Clear,0,2012-11-24 14:56:00
7:56 AM,41.0,16.0,36,30.24,10.0,Calm,Calm,-,N/A,,Clear,0,2012-11-24 15:56:00
8:56 AM,50.0,18.0,28,30.24,10.0,Calm,Calm,-,N/A,,Clear,0,2012-11-24 16:56:00
9:56 AM,59.0,19.0,21,30.22,10.0,Calm,Calm,-,N/A,,Clear,0,2012-11-24 17:56:00
10:56 AM,64.0,19.0,18,30.18,10.0,Calm,Calm,-,N/A,,Clear,0,2012-11-24 18:56:00
11:56 AM,66.9,19.0,16,30.13,10.0,Calm,Calm,-,N/A,,Clear,0,2012-11-24 19:56:00
12:56 PM,71.1,19.9,14,30.09,10.0,Calm,Calm,-,N/A,,Clear,0,2012-11-24 20:56:00
1:56 PM,73.0,19.9,14,30.06,10.0,Calm,Calm,-,N/A,,Clear,0,2012-11-24 21:56:00
2:56 PM,73.0,19.9,14,30.04,10.0,Calm,Calm,-,N/A,,Clear,0,2012-11-24 22:56:00
3:56 PM,73.0,19.9,14,30.04,10.0,Calm,Calm,-,N/A,,Clear,0,2012-11-24 23:56:00
4:56 PM,66.0,19.9,17,30.04,10.0,Calm,Calm,-,N/A,,Clear,0,2012-11-25 00:56:00
5:56 PM,55.0,17.1,23,30.06,10.0,WSW,4.6,-,N/A,,Clear,250,2012-11-25 01:56:00
6:56 PM,51.1,16.0,25,30.06,10.0,SSW,9.2,-,N/A,,Clear,210,2012-11-25 02:56:00
7:56 PM,50.0,16.0,26,30.05,10.0,SSW,8.1,-,N/A,,Clear,210,2012-11-25 03:56:00
8:56 PM,48.9,17.1,28,30.04,10.0,SSW,9.2,-,N/A,,Clear,210,2012-11-25 04:56:00
9:56 PM,46.9,17.1,30,30.04,10.0,SW,4.6,-,N/A,,Clear,220,2012-11-25 05:56:00
10:56 PM,45.0,17.1,33,30.02,10.0,WSW,5.8,-,N/A,,Clear,240,2012-11-25 06:56:00
11:56 PM,39.9,15.1,36,30.01,10.0,SW,5.8,-,N/A,,Clear,230,2012-11-25 07:56:00